When you browse on this site, cookies collect data to enhance your experience and personalize the content and advertising you see.
Visit our Privacy Policy to learn more. By continuing to use the site, you agree to this use of cookies and data.
  • în România
  • Lista ţărilor
  • Pe 7 zile
  • Temperatura apei
  • Hartă satelitară
  • Meteo pe hartă
  • Widget-uri
  • user-avatar
    Intrare

    Meteo pe oră la Zyabrikovo

    Astăzi, 21 Noiembrie, Miercuri

    Timp Temperatura Precipitaţii Vânt Presiune Umiditate
    00:00 -5°C° 0 mm 3 m/s 750 mmHg 82%
    01:00 -5°C° 0 mm 3 m/s 750 mmHg 85%
    02:00 -4°C° 0 mm 3 m/s 750 mmHg 86%
    03:00 -4°C° 0 mm 3 m/s 750 mmHg 86%
    04:00 -4°C° 0 mm 3 m/s 750 mmHg 87%
    05:00 -4°C° 0 mm 3 m/s 750 mmHg 87%
    06:00 -4°C° 0 mm 3 m/s 750 mmHg 87%
    07:00 -4°C° 0 mm 3 m/s 750 mmHg 88%
    08:00 -4°C° 0 mm 3 m/s 750 mmHg 88%
    09:00 -4°C° 0 mm 3 m/s 750 mmHg 86%
    10:00 -4°C° 0 mm 3 m/s 750 mmHg 85%
    11:00 -2°C° 0 mm 3 m/s 750 mmHg 83%
    12:00 -4°C° 0 mm 3 m/s 750 mmHg 84%
    13:00 -3°C° 0 mm 2 m/s 750 mmHg 85%
    14:00 -3°C° 0 mm 2 m/s 750 mmHg 86%
    15:00 -4°C° 0 mm 3 m/s 750 mmHg 87%
    16:00 -4°C° 0 mm 3 m/s 750 mmHg 89%
    17:00 -5°C° 0 mm 3 m/s 750 mmHg 91%
    18:00 -5°C° 0 mm 3 m/s 749 mmHg 89%
    19:00 -4°C° 0 mm 3 m/s 749 mmHg 88%
    20:00 -4°C° 0 mm 3 m/s 749 mmHg 86%
    21:00 -4°C° 0 mm 3 m/s 748 mmHg 86%
    22:00 -4°C° 0 mm 3 m/s 748 mmHg 86%
    23:00 -4°C° 0 mm 3 m/s 748 mmHg 86%

    Mâine, 22 Noiembrie, Joi

    Timp Temperatura Precipitaţii Vânt Presiune Umiditate
    00:00 -4°C° 0 mm 4 m/s 747 mmHg 86%
    01:00 -4°C° 0 mm 4 m/s 747 mmHg 86%
    02:00 -4°C° 0 mm 4 m/s 747 mmHg 86%
    03:00 -5°C° 0 mm 4 m/s 746 mmHg 86%
    04:00 -5°C° 0 mm 4 m/s 746 mmHg 86%
    05:00 -5°C° 0 mm 4 m/s 746 mmHg 87%
    06:00 -5°C° 0 mm 4 m/s 745 mmHg 85%
    07:00 -5°C° 0 mm 5 m/s 745 mmHg 84%
    08:00 -5°C° 0 mm 5 m/s 745 mmHg 83%
    09:00 -5°C° 0 mm 5 m/s 744 mmHg 82%
    10:00 -4°C° 0 mm 5 m/s 744 mmHg 80%
    11:00 -4°C° 0 mm 5 m/s 744 mmHg 79%
    12:00 -4°C° 0 mm 5 m/s 744 mmHg 79%
    13:00 -2°C° 0 mm 5 m/s 743 mmHg 79%
    14:00 -2°C° 0 mm 5 m/s 743 mmHg 80%
    15:00 -2°C° 0 mm 5 m/s 743 mmHg 80%
    16:00 -2°C° 0 mm 5 m/s 743 mmHg 81%
    17:00 -2°C° 0 mm 5 m/s 743 mmHg 82%
    18:00 -2°C° 0 mm 5 m/s 743 mmHg 82%
    19:00 -1°C° 0 mm 5 m/s 743 mmHg 82%
    20:00 -1°C° 0 mm 5 m/s 743 mmHg 82%
    21:00 -2°C° 0 mm 5 m/s 744 mmHg 82%
    22:00 -2°C° 0 mm 4 m/s 744 mmHg 82%
    23:00 -2°C° 0 mm 4 m/s 745 mmHg 82%

    Poimâine, 23 Noiembrie, Vineri

    Timp Temperatura Precipitaţii Vânt Presiune Umiditate
    00:00 -3°C° 0 mm 4 m/s 745 mmHg 84%
    01:00 -4°C° 0 mm 4 m/s 746 mmHg 86%
    02:00 -4°C° 0 mm 3 m/s 746 mmHg 88%
    03:00 -5°C° 0 mm 3 m/s 747 mmHg 89%
    04:00 -5°C° 0 mm 3 m/s 747 mmHg 90%
    05:00 -5°C° 0 mm 2 m/s 748 mmHg 90%
    06:00 -5°C° 0 mm 2 m/s 748 mmHg 90%
    07:00 -5°C° 0 mm 2 m/s 748 mmHg 91%
    08:00 -6°C° 0 mm 2 m/s 749 mmHg 91%
    09:00 -5°C° 0 mm 2 m/s 749 mmHg 87%
    10:00 -2°C° 0 mm 1 m/s 749 mmHg 83%
    11:00 -1°C° 0 mm 1 m/s 750 mmHg 79%
    12:00 -3°C° 0 mm 2 m/s 750 mmHg 79%
    13:00 -3°C° 0 mm 2 m/s 750 mmHg 79%
    14:00 -3°C° 0 mm 2 m/s 750 mmHg 79%
    15:00 -3°C° 0 mm 2 m/s 749 mmHg 82%
    16:00 -3°C° 0 mm 2 m/s 749 mmHg 85%
    17:00 -3°C° 0 mm 2 m/s 749 mmHg 88%
    18:00 -4°C° 0 mm 3 m/s 749 mmHg 87%
    19:00 -4°C° 0 mm 3 m/s 748 mmHg 85%
    20:00 -2°C° 0 mm 3 m/s 748 mmHg 84%
    21:00 -3°C° 0 mm 4 m/s 747 mmHg 84%
    22:00 -3°C° 0 mm 4 m/s 747 mmHg 83%
    23:00 -3°C° 0 mm 4 m/s 746 mmHg 83%

    24 Noiembrie, Sâmbătă

    Timp Temperatura Precipitaţii Vânt Presiune Umiditate
    00:00 -4°C° 0 mm 5 m/s 746 mmHg 82%
    01:00 -4°C° 0 mm 5 m/s 745 mmHg 81%
    02:00 -4°C° 0 mm 5 m/s 745 mmHg 80%
    03:00 -4°C° 0 mm 5 m/s 744 mmHg 80%
    04:00 -4°C° 0 mm 5 m/s 744 mmHg 80%
    05:00 -5°C° 0 mm 5 m/s 743 mmHg 80%
    06:00 -5°C° 0 mm 5 m/s 743 mmHg 80%
    07:00 -5°C° 0 mm 5 m/s 742 mmHg 81%
    08:00 -5°C° 0 mm 5 m/s 742 mmHg 81%
    09:00 -5°C° 0 mm 5 m/s 742 mmHg 79%
    10:00 -5°C° 0 mm 5 m/s 741 mmHg 78%
    11:00 -5°C° 0 mm 5 m/s 741 mmHg 76%
    12:00 -5°C° 0 mm 5 m/s 741 mmHg 75%
    13:00 -4°C° 0 mm 4 m/s 740 mmHg 74%
    14:00 -4°C° 0 mm 4 m/s 740 mmHg 74%
    15:00 -4°C° 0 mm 4 m/s 740 mmHg 75%
    16:00 -4°C° 0 mm 4 m/s 740 mmHg 77%
    17:00 -4°C° 0 mm 3 m/s 739 mmHg 78%
    18:00 -4°C° 0.1 mm 3 m/s 739 mmHg 80%
    19:00 -4°C° 0.1 mm 3 m/s 739 mmHg 83%
    20:00 -4°C° 0.1 mm 3 m/s 739 mmHg 85%
    21:00 -4°C° 0 mm 3 m/s 739 mmHg 87%
    22:00 -4°C° 0 mm 3 m/s 740 mmHg 88%
    23:00 -3°C° 0 mm 2 m/s 740 mmHg 89%

    25 Noiembrie, Duminică

    Timp Temperatura Precipitaţii Vânt Presiune Umiditate
    00:00 -3°C° 0 mm 2 m/s 740 mmHg 90%
    01:00 -3°C° 0 mm 2 m/s 740 mmHg 90%
    02:00 -3°C° 0 mm 2 m/s 741 mmHg 90%
    03:00 -1°C° 0 mm 1 m/s 740 mmHg 91%
    04:00 -1°C° 0 mm 1 m/s 740 mmHg 93%
    05:00 -2°C° 0 mm 1 m/s 740 mmHg 94%
    06:00 -2°C° 0 mm 1 m/s 740 mmHg 94%
    07:00 -2°C° 0 mm 1 m/s 740 mmHg 94%
    08:00 -3°C° 0 mm 0 m/s 740 mmHg 94%
    09:00 -3°C° 0 mm 0 m/s 741 mmHg 91%
    10:00 -2°C° 0 mm 0 m/s 741 mmHg 88%
    11:00 -2°C° 0 mm 0 m/s 741 mmHg 86%
    12:00 -2°C° 0 mm 0 m/s 740 mmHg 86%
    13:00 -1°C° 0 mm 1 m/s 740 mmHg 87%
    14:00 -1°C° 0 mm 1 m/s 740 mmHg 87%
    15:00 -1°C° 0 mm 1 m/s 739 mmHg 89%
    16:00 -2°C° 0 mm 1 m/s 739 mmHg 91%
    17:00 -3°C° 0 mm 1 m/s 739 mmHg 93%
    18:00 -3°C° 0 mm 1 m/s 739 mmHg 93%
    19:00 -3°C° 0 mm 1 m/s 738 mmHg 93%
    20:00 -3°C° 0 mm 1 m/s 738 mmHg 94%
    21:00 -2°C° 0.1 mm 1 m/s 738 mmHg 93%
    22:00 -2°C° 0.1 mm 1 m/s 737 mmHg 93%
    23:00 -2°C° 0.1 mm 1 m/s 737 mmHg 93%

    26 Noiembrie, Luni

    Timp Temperatura Precipitaţii Vânt Presiune Umiditate
    00:00 -2°C° 0.1 mm 1 m/s 737 mmHg 93%
    01:00 -2°C° 0.1 mm 1 m/s 736 mmHg 93%
    02:00 -2°C° 0.1 mm 1 m/s 736 mmHg 94%
    03:00 -2°C° 0.2 mm 1 m/s 736 mmHg 94%
    04:00 -2°C° 0.2 mm 1 m/s 735 mmHg 94%
    05:00 -2°C° 0.2 mm 1 m/s 735 mmHg 94%
    06:00 -2°C° 0.3 mm 1 m/s 735 mmHg 94%
    07:00 -4°C° 0.3 mm 2 m/s 735 mmHg 94%
    08:00 -5°C° 0.3 mm 2 m/s 735 mmHg 94%
    09:00 -4°C° 0.3 mm 2 m/s 734 mmHg 93%
    10:00 -4°C° 0.3 mm 2 m/s 734 mmHg 92%
    11:00 -4°C° 0.3 mm 2 m/s 734 mmHg 91%
    12:00 -4°C° 0.3 mm 2 m/s 734 mmHg 90%
    13:00 -5°C° 0.3 mm 3 m/s 734 mmHg 90%
    14:00 -5°C° 0.3 mm 3 m/s 734 mmHg 90%
    15:00 -5°C° 0.3 mm 3 m/s 734 mmHg 90%
    16:00 -5°C° 0.3 mm 3 m/s 734 mmHg 90%
    17:00 -6°C° 0.3 mm 3 m/s 734 mmHg 91%
    18:00 -6°C° 0.1 mm 3 m/s 734 mmHg 90%
    19:00 -6°C° 0.1 mm 3 m/s 734 mmHg 90%
    20:00 -7°C° 0.1 mm 3 m/s 734 mmHg 90%
    21:00 -7°C° 0 mm 3 m/s 734 mmHg 90%
    22:00 -7°C° 0 mm 3 m/s 734 mmHg 90%
    23:00 -7°C° 0 mm 3 m/s 734 mmHg 90%
    Arată mai mult